Theta_e
302 293 289 292 294 297 296 294 294 299 302 295 292 291 292 294 294 293 294 296 297 299 302 304 305 305 305 305 307 309 311 313 319 321 326 329 329 329 330 331 332 333 333 332
296 291 295 298 298 297 297 293 292 295 300 298 293 290 294 295 294 294 294 294 295 297 298 300 301 301 301 302 303 304 305 308 310 322 323 328 328 327 327 324 325 324 324 325
289 294 300 297 296 295 295 294 292 290 294 296 295 292 292 293 294 296 295 296 296 296 296 297 298 298 299 299 300 301 302 304 304 309 312 316 318 314 313 314 314 315 315 309
290 294 295 295 294 296 292 298 294 292 291 285 295 285 290 291 291 291 292 292 293 294 296 297 296 296 296 297 298 299 300 300 301 302 304 304 304 302 303 305 306 307 308 305
288 290 289 292 294 298 294 299 295 294 290 288 288 286 289 290 288 289 290 292 293 294 295 295 295 295 295 296 295 296 297 297 298 297 299 299 299 300 300 301 301 302 302 303
291 295 291 292 295 298 299 297 295 293 291 284 287 286 284 285 287 288 291 291 292 293 294 295 295 295 294 294 295 295 294 295 296 296 295 295 295 296 295 296 296 297 298 299
291 291 294 294 291 298 296 291 282 280 280 280 288 287 283 285 288 289 289 290 291 292 292 293 292 293 293 293 293 294 293 293 294 294 294 293 294 294 294 294 294 294 294 295
283 282 290 293 291 291 292 290 281 275 277 278 288 281 281 288 290 290 290 290 291 291 292 292 292 292 292 292 291 291 291 291 292 292 292 292 292 292 293 293 292 292 292 293
283 285 292 293 294 294 290 287 291 283 278 278 282 280 285 287 287 287 287 288 289 290 291 292 291 291 290 290 290 290 290 290 291 291 291 290 290 290 290 290 290 290 291 291
288 282 290 291 293 293 290 292 283 284 277 275 277 277 278 282 283 285 285 285 287 290 290 290 289 289 289 289 289 289 289 288 288 289 290 289 288 288 288 288 288 288 288 289
290 287 286 289 286 286 286 285 287 286 282 277 274 277 284 284 285 284 284 286 287 288 289 288 289 289 288 288 287 287 287 287 287 288 288 287 286 286 286 285 285 286 286 287
291 287 282 284 289 290 290 287 287 279 279 281 280 277 286 286 285 285 285 286 287 289 288 287 288 288 287 286 285 285 285 285 285 287 286 285 284 284 283 283 283 284 284 286
290 284 278 281 285 288 287 289 289 288 284 280 276 275 285 286 285 285 285 286 287 288 287 287 287 287 286 285 285 284 284 284 284 284 284 283 282 281 281 282 282 282 283 283
291 283 280 274 278 283 283 286 288 286 277 279 278 278 282 283 284 284 285 286 286 286 286 286 286 286 286 285 283 283 282 283 283 283 282 281 280 280 280 281 281 281 281 282
287 276 278 278 280 285 283 285 287 285 285 279 280 280 283 284 284 284 285 285 285 285 285 286 286 286 285 283 282 282 282 282 282 281 281 280 280 280 280 280 280 280 280 280
287 279 279 275 278 283 282 285 284 284 285 283 282 280 288 287 284 283 285 285 285 285 285 286 287 286 284 283 281 282 281 281 281 280 279 279 279 279 279 279 279 279 279 279
281 278 271 267 273 274 272 276 282 283 284 284 280 284 284 282 283 283 283 285 285 285 285 285 285 284 282 281 281 279 279 280 279 278 278 277 277 277 277 278 278 278 278 278
278 275 272 269 266 264 276 278 278 281 282 282 282 282 283 283 283 284 284 284 285 285 285 285 284 282 281 280 278 278 279 278 278 277 276 276 276 276 277 277 277 276 277 277
281 277 267 268 260 270 275 276 278 279 278 282 281 281 281 282 281 279 283 283 284 284 284 284 282 281 279 277 277 277 277 276 276 275 275 276 276 276 276 276 275 276 276 276
280 278 272 261 262 262 275 276 280 279 272 283 282 280 280 281 275 276 283 285 284 284 283 282 280 279 277 275 276 276 276 275 274 274 275 275 276 275 274 275 274 274 275 276
262 263 263 260 259 266 277 278 279 269 274 281 283 281 281 279 279 282 284 283 283 283 282 280 279 278 277 276 275 275 274 273 274 274 274 274 274 273 273 273 272 273 273 274
266 264 261 259 259 265 278 278 275 278 280 281 281 282 282 282 282 283 283 282 282 281 280 280 277 277 275 275 274 273 273 273 273 273 272 271 270 271 272 267 269 269 269 269
266 273 269 271 271 278 279 279 281 282 282 281 282 282 283 282 281 282 282 281 281 281 280 278 276 276 274 273 273 272 272 272 272 269 267 267 268 270 270 265 268 268 266 267
274 277 272 272 275 279 280 281 282 282 283 282 281 281 282 281 281 281 281 281 280 279 278 276 274 273 273 271 272 271 271 270 264 263 266 268 267 267 267 269 269 266 266 266
275 276 274 273 277 278 280 280 281 282 282 282 281 282 281 281 281 281 280 280 279 278 277 275 273 272 272 270 268 265 268 268 267 266 267 267 267 265 267 268 267 269 270 269
277 276 274 273 278 278 279 280 281 281 281 282 281 280 281 281 280 280 279 278 278 276 275 272 272 269 268 266 266 266 265 266 264 265 266 265 265 264 265 265 266 270 272 273
Wind_Speed
5 4 9 9 2 5 6 7 9 7 2 7 12 10 8 7 13 12 11 12 12 12 10 11 12 12 13 14 15 15 15 13 9 5 3 3 4 4 5 7 11 10 8 7
3 9 5 5 7 6 4 7 5 4 14 6 3 9 8 11 7 8 9 10 10 10 11 11 12 12 13 13 14 15 15 16 12 8 4 4 3 6 6 8 10 13 13 14
5 2 12 7 8 12 6 7 6 9 9 9 4 2 4 5 10 12 11 9 9 9 8 9 11 12 11 14 14 14 14 15 14 13 9 8 8 8 10 11 10 12 13 13
6 6 10 8 8 10 14 6 6 15 7 5 6 3 5 6 7 8 8 8 8 8 9 9 10 12 12 11 10 13 14 16 15 16 12 14 9 8 6 6 7 9 13 13
6 7 5 5 6 9 4 16 5 11 6 5 6 4 4 13 8 8 6 7 7 7 8 10 10 10 10 10 11 11 13 15 15 15 13 9 10 7 6 7 10 11 10 11
6 3 7 7 2 5 8 12 9 8 3 4 6 5 4 6 13 9 8 8 7 7 7 8 8 8 10 9 10 11 13 14 13 13 13 12 11 9 8 9 8 8 8 8
4 5 2 4 7 10 17 14 3 3 4 3 7 3 1 3 8 14 12 9 7 6 6 7 8 8 10 11 11 10 12 14 12 12 12 12 11 10 10 9 7 8 7 7
5 5 6 3 6 9 15 6 6 7 7 4 7 8 6 3 7 9 10 9 8 7 6 7 7 6 8 10 10 10 10 10 11 10 10 10 10 7 7 8 7 7 7 7
6 0 3 2 2 7 7 9 4 5 2 5 4 3 3 5 7 7 8 8 7 6 6 7 6 6 6 7 9 9 9 9 10 9 7 9 9 9 8 9 8 7 7 9
2 4 1 1 2 2 5 9 5 2 6 3 3 5 5 12 11 9 9 8 7 6 7 6 6 6 6 6 6 7 7 8 7 7 7 7 8 8 8 7 9 9 9 10
7 1 4 4 2 5 3 4 2 4 4 5 5 4 6 16 15 13 8 8 7 7 7 7 6 6 6 6 7 6 6 8 8 7 7 8 9 9 8 8 9 9 9 10
3 3 4 4 3 2 2 4 5 5 3 2 3 3 2 12 11 11 9 7 7 8 7 7 7 7 6 6 6 5 7 8 7 7 7 9 8 8 8 8 9 9 9 9
2 2 3 4 2 4 3 2 3 5 4 2 6 4 3 11 11 8 9 7 7 7 6 6 5 6 6 6 6 6 6 6 5 5 5 7 7 7 7 8 8 8 8 8
1 5 2 4 3 3 5 3 1 4 4 4 3 9 7 12 12 9 7 7 7 7 7 5 6 5 6 5 4 4 5 4 5 5 5 4 5 6 6 6 7 8 8 8
3 5 3 2 5 4 3 6 5 3 4 5 8 16 16 13 12 9 8 7 8 7 6 6 5 5 4 4 3 4 4 4 4 4 4 4 5 5 6 7 7 7 7 7
2 2 1 8 10 7 7 5 8 4 4 7 10 2 5 6 8 7 8 7 7 7 6 5 5 5 4 3 3 3 3 2 3 3 4 4 4 5 5 5 6 6 7 8
3 6 3 2 5 6 6 3 2 3 2 8 7 6 8 9 10 8 8 8 8 7 6 6 5 4 4 3 3 2 2 2 3 3 3 4 5 6 7 7 7 9 9 8
4 4 3 3 4 3 6 1 1 3 2 4 6 11 12 9 6 6 5 7 7 7 5 5 4 4 3 3 2 2 3 3 3 3 3 4 5 5 6 6 5 6 5 7
4 4 4 5 3 5 5 4 5 5 5 4 9 7 7 6 5 1 3 3 7 6 4 4 3 2 3 3 1 1 1 1 1 2 2 2 3 4 4 5 5 6 7 7
5 7 6 4 7 6 5 2 1 3 5 9 8 9 8 6 4 4 5 6 6 6 5 5 4 3 4 3 2 1 2 1 0 1 2 3 3 4 4 5 6 5 6 8
5 5 5 2 2 8 5 4 1 8 7 5 9 8 7 5 5 5 6 4 4 5 6 6 5 5 5 5 3 2 2 3 1 1 2 3 3 4 4 3 3 5 6 7
4 5 2 3 5 6 5 4 7 4 2 5 6 7 8 6 7 7 7 6 6 6 6 6 5 5 5 4 3 3 4 3 1 1 3 3 4 4 3 3 3 4 4 5
2 6 5 8 7 4 6 3 4 3 4 4 7 6 9 7 5 6 6 6 6 7 5 4 5 4 4 5 5 5 2 2 0 2 3 3 4 4 3 3 4 4 3 3
4 4 3 4 3 7 7 5 3 3 5 4 5 6 7 6 7 7 6 5 5 4 5 3 4 5 5 4 4 4 3 3 3 2 4 4 3 4 3 3 3 3 3 4
5 5 5 5 6 4 7 8 7 6 4 5 5 7 7 6 6 7 5 6 6 5 4 4 6 5 6 4 5 4 4 4 3 3 4 4 3 3 4 4 3 4 4 4
8 9 7 8 8 6 4 6 8 8 9 9 8 5 5 6 7 4 6 5 5 6 4 4 6 5 5 5 5 5 5 5 4 3 3 2 2 2 3 3 5 9 13 14
Wind_Direction
202 163 214 178 225 139 149 150 142 184 237 12 85 69 40 29 62 63 57 65 65 64 55 42 32 29 30 32 32 28 27 15 19 3 18 58 58 28 28 20 15 13 7 357
157 223 208 198 196 225 172 148 155 108 161 102 142 76 57 51 57 72 75 67 68 65 51 42 33 29 32 33 32 32 29 24 18 24 356 43 51 53 54 34 30 25 24 24
169 213 189 208 199 204 203 166 169 134 121 102 78 33 27 39 56 67 59 69 62 62 56 44 37 32 32 33 33 33 33 35 29 24 32 41 43 39 33 26 24 28 33 27
214 258 181 202 226 194 209 121 123 138 125 171 140 200 163 126 75 62 61 59 60 58 57 53 43 36 32 28 33 37 38 38 35 31 40 48 52 44 21 20 22 24 25 26
213 172 173 191 210 174 177 134 112 90 98 123 174 148 178 142 142 120 87 78 69 63 64 61 51 46 34 28 34 40 42 44 39 38 41 49 50 39 24 23 24 20 17 23
183 187 156 186 86 118 103 102 49 62 71 207 192 136 174 181 151 129 111 91 79 69 66 63 58 52 51 41 44 42 45 42 40 41 39 44 45 39 33 23 23 15 13 9
147 162 154 148 104 110 116 134 129 131 191 190 184 122 86 91 133 135 131 119 103 91 75 68 61 53 50 49 45 46 43 41 32 43 38 34 32 35 35 26 21 17 12 10
158 194 174 187 171 168 160 170 141 162 173 154 120 167 182 157 109 117 120 120 109 103 98 82 69 64 62 54 49 47 43 42 33 34 37 36 34 32 30 25 19 18 13 6
163 83 27 92 82 155 157 210 112 78 16 100 140 116 46 154 132 125 126 116 123 116 103 90 81 71 64 63 55 54 49 42 34 28 29 32 27 30 27 23 18 9 7 4
190 130 258 325 76 27 164 158 142 107 167 142 177 176 190 176 168 158 140 138 132 122 109 101 86 79 70 67 63 51 52 46 25 17 19 32 24 24 24 21 18 10 3 0
152 19 146 100 20 161 120 149 107 121 141 141 142 229 190 175 167 158 153 146 138 132 129 116 100 86 81 74 63 50 50 47 31 20 22 30 22 20 23 20 13 5 4 359
223 103 85 113 270 260 267 143 130 129 227 46 92 276 71 153 145 141 147 142 138 134 136 129 121 110 84 73 57 45 40 42 24 12 22 30 17 17 17 16 7 359 3 358
332 117 79 107 16 356 78 46 114 104 77 183 129 229 86 125 135 144 145 146 135 138 131 111 97 89 77 60 46 39 44 42 10 11 29 27 12 13 9 6 359 359 358 354
279 62 186 151 167 150 159 161 93 112 101 162 179 148 167 154 150 147 148 146 142 134 126 116 97 103 91 90 74 60 51 48 17 23 28 17 8 3 358 354 357 0 354 357
40 79 59 50 349 115 116 132 128 92 124 140 170 171 182 171 156 157 151 146 143 142 125 124 130 133 114 100 72 61 43 37 20 25 25 16 1 356 359 357 355 355 356 354
96 118 9 26 1 65 93 97 99 88 93 69 135 124 134 132 117 134 155 162 168 161 144 131 123 139 134 100 81 56 18 37 25 32 21 12 1 353 356 348 352 354 356 354
79 131 90 311 345 1 26 248 121 123 108 142 161 194 143 144 152 160 165 177 183 165 149 137 144 149 146 140 117 65 349 52 35 42 21 10 2 358 359 352 359 358 353 343
104 81 76 159 37 41 241 140 25 147 106 119 95 145 154 148 138 142 164 169 156 152 147 144 149 153 149 127 84 25 14 41 35 29 16 5 357 346 347 342 341 327 324 322
32 102 67 118 143 279 306 216 168 154 235 205 137 123 122 117 83 341 234 124 155 158 160 161 145 136 125 129 99 4 341 42 65 25 356 349 332 326 324 327 332 329 326 325
32 59 104 63 119 184 241 182 125 91 306 189 151 157 144 124 133 245 167 154 147 152 147 154 164 152 148 176 175 240 229 199 156 341 320 326 334 332 318 320 329 321 312 315
6 2 120 118 153 288 253 161 90 94 240 148 147 148 139 144 186 183 164 171 144 163 167 154 159 188 197 181 181 239 248 226 207 276 303 311 323 306 300 317 309 316 311 318
157 121 201 72 62 292 162 77 161 217 17 121 128 146 158 152 155 176 197 202 187 184 180 176 186 212 190 179 179 236 240 182 202 332 318 310 300 305 313 315 298 301 298 304
308 178 187 169 214 246 219 198 188 166 150 159 138 161 163 164 194 202 210 208 212 211 212 187 210 231 197 199 198 237 218 170 91 354 307 288 299 298 293 287 296 308 296 304
241 187 190 59 240 213 209 229 193 174 189 163 152 148 153 180 214 218 207 214 221 218 227 209 196 229 248 213 209 208 171 145 127 273 285 291 279 289 280 294 283 286 297 303
203 130 173 272 276 318 250 226 212 208 189 161 168 171 194 200 220 212 225 237 235 234 229 203 212 225 239 206 210 196 187 167 215 244 264 272 279 300 296 286 276 300 279 278
185 180 171 216 210 170 228 183 185 187 201 201 187 206 216 198 212 203 237 231 225 235 228 218 225 224 234 210 216 204 196 185 199 255 263 252 282 273 292 292 303 307 308 311